TimeCDT,TemperatureF,Dew PointF,Humidity,Sea Level PressureIn,VisibilityMPH,Wind Direction,Wind SpeedMPH,Gust SpeedMPH,PrecipitationIn,Events,Conditions,WindDirDegrees,DateUTC
12:52 AM,64.0,55.0,73,30.13,10.0,NW,3.5,-,N/A,,Clear,310,2013-08-04 05:52:00
1:52 AM,62.1,55.0,78,30.14,10.0,NNW,5.8,-,N/A,,Clear,330,2013-08-04 06:52:00
2:52 AM,61.0,55.0,81,30.15,10.0,NNW,5.8,-,N/A,,Clear,330,2013-08-04 07:52:00
3:41 AM,60.8,55.4,82,30.16,10.0,NNW,5.8,-,N/A,,Scattered Clouds,330,2013-08-04 08:41:00
3:52 AM,61.0,57.0,87,30.16,10.0,NNW,5.8,-,N/A,,Partly Cloudy,340,2013-08-04 08:52:00
4:52 AM,62.1,60.1,93,30.16,10.0,NE,8.1,-,N/A,,Scattered Clouds,40,2013-08-04 09:52:00
5:52 AM,63.0,57.0,81,30.17,10.0,ENE,6.9,-,N/A,,Partly Cloudy,60,2013-08-04 10:52:00
6:52 AM,64.0,57.0,78,30.19,10.0,NE,6.9,-,N/A,,Scattered Clouds,50,2013-08-04 11:52:00
7:52 AM,66.0,55.9,70,30.20,10.0,ENE,12.7,-,N/A,,Mostly Cloudy,70,2013-08-04 12:52:00
8:04 AM,66.2,55.4,68,30.21,10.0,ENE,9.2,-,N/A,,Scattered Clouds,60,2013-08-04 13:04:00
8:47 AM,68.0,55.4,64,30.22,10.0,NE,6.9,-,N/A,,Mostly Cloudy,40,2013-08-04 13:47:00
8:52 AM,68.0,55.9,65,30.22,10.0,NNE,9.2,-,N/A,,Mostly Cloudy,30,2013-08-04 13:52:00
9:18 AM,69.8,57.2,64,30.23,10.0,ENE,6.9,-,N/A,,Scattered Clouds,70,2013-08-04 14:18:00
9:52 AM,68.0,55.0,63,30.24,10.0,East,8.1,-,N/A,,Scattered Clouds,80,2013-08-04 14:52:00
10:52 AM,69.1,55.0,61,30.22,10.0,NE,6.9,-,N/A,,Scattered Clouds,40,2013-08-04 15:52:00
11:52 AM,69.1,54.0,58,30.22,10.0,East,8.1,-,N/A,,Scattered Clouds,80,2013-08-04 16:52:00
12:52 PM,70.0,55.0,59,30.21,10.0,East,10.4,-,N/A,,Scattered Clouds,80,2013-08-04 17:52:00
1:52 PM,69.1,55.9,63,30.19,10.0,ESE,10.4,-,N/A,,Mostly Cloudy,110,2013-08-04 18:52:00
2:52 PM,68.0,55.0,63,30.18,10.0,ESE,9.2,-,N/A,,Mostly Cloudy,110,2013-08-04 19:52:00
3:52 PM,68.0,55.0,63,30.18,10.0,ENE,11.5,-,N/A,,Mostly Cloudy,70,2013-08-04 20:52:00
4:52 PM,66.0,55.0,68,30.18,10.0,East,5.8,-,N/A,,Mostly Cloudy,100,2013-08-04 21:52:00
5:52 PM,66.0,55.0,68,30.17,10.0,East,8.1,-,N/A,,Mostly Cloudy,90,2013-08-04 22:52:00
6:52 PM,64.9,55.9,73,30.16,10.0,ESE,5.8,-,N/A,,Mostly Cloudy,120,2013-08-04 23:52:00
7:52 PM,64.0,53.1,67,30.14,10.0,ESE,4.6,-,N/A,,Mostly Cloudy,120,2013-08-05 00:52:00
8:52 PM,64.0,54.0,70,30.14,10.0,ESE,4.6,-,N/A,,Mostly Cloudy,120,2013-08-05 01:52:00
9:52 PM,63.0,53.1,70,30.14,10.0,East,4.6,-,N/A,,Scattered Clouds,100,2013-08-05 02:52:00
10:52 PM,62.1,53.1,72,30.14,10.0,SE,3.5,-,N/A,,Partly Cloudy,130,2013-08-05 03:52:00
11:52 PM,62.1,54.0,75,30.14,10.0,SE,3.5,-,N/A,,Partly Cloudy,130,2013-08-05 04:52:00